TimePDT,TemperatureF,Dew PointF,Humidity,Sea Level PressureIn,VisibilityMPH,Wind Direction,Wind SpeedMPH,Gust SpeedMPH,PrecipitationIn,Events,Conditions,WindDirDegrees,DateUTC
12:28 AM,53.6,51.8,94,30.09,3.0,SSE,3.5,-,N/A,,Overcast,160,2013-03-14 07:28:00
12:53 AM,52.0,51.1,97,30.09,2.0,SSE,5.8,-,N/A,,Overcast,150,2013-03-14 07:53:00
1:08 AM,51.8,51.8,100,30.09,1.0,Calm,Calm,-,N/A,,Overcast,0,2013-03-14 08:08:00
1:18 AM,51.8,51.8,100,30.09,0.8,SSE,3.5,-,N/A,,Overcast,150,2013-03-14 08:18:00
1:29 AM,51.8,51.8,100,30.09,1.0,Calm,Calm,-,N/A,,Overcast,0,2013-03-14 08:29:00
1:53 AM,53.1,51.1,93,30.10,1.0,WSW,3.5,-,N/A,,Overcast,250,2013-03-14 08:53:00
2:03 AM,51.8,51.8,100,30.09,0.8,Calm,Calm,-,N/A,,Overcast,0,2013-03-14 09:03:00
2:15 AM,53.6,51.8,94,30.09,1.2,Calm,Calm,-,N/A,,Overcast,0,2013-03-14 09:15:00
2:53 AM,53.1,51.1,93,30.09,1.2,Calm,Calm,-,N/A,,Overcast,0,2013-03-14 09:53:00
3:50 AM,51.8,51.8,100,30.07,2.5,Calm,Calm,-,N/A,,Overcast,0,2013-03-14 10:50:00
3:53 AM,52.0,51.1,97,30.07,2.5,Calm,Calm,-,N/A,,Overcast,0,2013-03-14 10:53:00
4:12 AM,51.8,51.8,100,30.06,3.0,Calm,Calm,-,N/A,,Overcast,0,2013-03-14 11:12:00
4:49 AM,53.6,51.8,94,30.06,2.5,Calm,Calm,-,N/A,,Overcast,0,2013-03-14 11:49:00
4:53 AM,53.1,51.1,93,30.06,3.0,Calm,Calm,-,N/A,,Overcast,0,2013-03-14 11:53:00
5:04 AM,53.6,51.8,94,30.06,2.5,Calm,Calm,-,N/A,,Overcast,0,2013-03-14 12:04:00
5:53 AM,52.0,50.0,93,30.07,2.0,Calm,Calm,-,N/A,,Overcast,0,2013-03-14 12:53:00
6:17 AM,51.8,50.0,94,30.07,1.0,Calm,Calm,-,N/A,,Overcast,0,2013-03-14 13:17:00
6:22 AM,51.8,50.0,94,30.07,1.0,Calm,Calm,-,N/A,,Overcast,0,2013-03-14 13:22:00
6:30 AM,51.8,50.0,94,30.07,1.0,Calm,Calm,-,N/A,,Overcast,0,2013-03-14 13:30:00
6:53 AM,52.0,50.0,93,30.07,1.0,Calm,Calm,-,N/A,,Overcast,0,2013-03-14 13:53:00
7:53 AM,53.1,50.0,89,30.08,1.2,Calm,Calm,-,N/A,,Overcast,0,2013-03-14 14:53:00
8:44 AM,55.4,50.0,82,30.08,2.0,Calm,Calm,-,N/A,,Haze,0,2013-03-14 15:44:00
8:51 AM,55.4,51.8,88,30.08,2.0,Calm,Calm,-,N/A,,Scattered Clouds,0,2013-03-14 15:51:00
8:53 AM,55.9,51.1,84,30.08,2.0,Calm,Calm,-,N/A,,Haze,0,2013-03-14 15:53:00
9:13 AM,57.2,51.8,82,30.08,3.0,Calm,Calm,-,N/A,,Haze,0,2013-03-14 16:13:00
9:53 AM,60.1,51.1,72,30.09,3.0,Calm,Calm,-,N/A,,Haze,0,2013-03-14 16:53:00
10:53 AM,64.9,51.1,61,30.08,3.0,Calm,Calm,-,N/A,,Haze,0,2013-03-14 17:53:00
11:53 AM,66.0,53.1,63,30.07,5.0,SW,4.6,-,N/A,,Haze,230,2013-03-14 18:53:00
12:53 PM,68.0,53.1,59,30.05,4.0,Variable,4.6,-,N/A,,Haze,0,2013-03-14 19:53:00
1:53 PM,64.9,52.0,63,30.04,10.0,WSW,5.8,-,N/A,,Scattered Clouds,240,2013-03-14 20:53:00
2:53 PM,68.0,53.1,59,30.03,10.0,WSW,5.8,-,N/A,,Partly Cloudy,240,2013-03-14 21:53:00
3:53 PM,68.0,52.0,56,30.02,10.0,SW,8.1,-,N/A,,Scattered Clouds,220,2013-03-14 22:53:00
4:53 PM,70.0,53.1,55,30.01,10.0,SW,4.6,-,N/A,,Scattered Clouds,230,2013-03-14 23:53:00
5:53 PM,68.0,52.0,56,30.01,10.0,SSW,4.6,-,N/A,,Scattered Clouds,210,2013-03-15 00:53:00
6:53 PM,62.1,52.0,70,30.01,10.0,WSW,4.6,-,N/A,,Partly Cloudy,240,2013-03-15 01:53:00
7:53 PM,59.0,52.0,78,30.01,10.0,South,4.6,-,N/A,,Partly Cloudy,190,2013-03-15 02:53:00
8:53 PM,59.0,51.1,75,30.03,10.0,WSW,4.6,-,N/A,,Partly Cloudy,240,2013-03-15 03:53:00
9:53 PM,57.0,52.0,83,30.04,10.0,SSW,5.8,-,N/A,,Scattered Clouds,200,2013-03-15 04:53:00
10:48 PM,55.4,51.8,88,30.05,6.0,WSW,5.8,-,N/A,,Partly Cloudy,240,2013-03-15 05:48:00
10:53 PM,55.9,52.0,87,30.05,6.0,SW,8.1,-,N/A,,Partly Cloudy,230,2013-03-15 05:53:00
11:31 PM,55.4,51.8,88,30.05,6.0,South,9.2,-,N/A,,Mostly Cloudy,190,2013-03-15 06:31:00
11:53 PM,54.0,52.0,93,30.05,6.0,SW,8.1,-,N/A,,Mostly Cloudy,220,2013-03-15 06:53:00